TimeMST,TemperatureF,Dew PointF,Humidity,Sea Level PressureIn,VisibilityMPH,Wind Direction,Wind SpeedMPH,Gust SpeedMPH,PrecipitationIn,Events,Conditions,WindDirDegrees,DateUTC
12:15 AM,30.2,23.0,75,30.31,10.0,NW,16.1,-,N/A,,Overcast,310,2012-11-15 07:15:00
12:35 AM,30.2,23.0,75,30.31,10.0,NW,15.0,-,N/A,,Overcast,310,2012-11-15 07:35:00
12:55 AM,30.2,23.0,75,30.31,10.0,NW,12.7,-,N/A,,Overcast,320,2012-11-15 07:55:00
1:15 AM,30.2,23.0,75,30.32,10.0,NW,10.4,-,N/A,,Overcast,320,2012-11-15 08:15:00
1:35 AM,28.4,21.2,74,30.32,10.0,NW,10.4,-,N/A,,Overcast,310,2012-11-15 08:35:00
1:55 AM,28.4,21.2,74,30.32,10.0,NW,8.1,-,N/A,,Overcast,310,2012-11-15 08:55:00
2:15 AM,30.2,23.0,75,30.33,10.0,WNW,3.5,-,N/A,,Overcast,290,2012-11-15 09:15:00
2:35 AM,30.2,23.0,75,30.33,10.0,Calm,Calm,-,N/A,,Overcast,0,2012-11-15 09:35:00
2:55 AM,30.2,23.0,75,30.34,10.0,Calm,Calm,-,N/A,,Overcast,0,2012-11-15 09:55:00
3:15 AM,30.2,23.0,75,30.33,10.0,SSE,3.5,-,N/A,,Overcast,150,2012-11-15 10:15:00
3:35 AM,28.4,23.0,80,30.33,10.0,ESE,9.2,-,N/A,,Overcast,110,2012-11-15 10:35:00
3:55 AM,28.4,24.8,86,30.33,10.0,SE,9.2,-,N/A,,Mostly Cloudy,130,2012-11-15 10:55:00
4:15 AM,28.4,24.8,86,30.33,10.0,SE,9.2,-,N/A,,Mostly Cloudy,130,2012-11-15 11:15:00
4:35 AM,28.4,23.0,80,30.33,10.0,East,10.4,-,N/A,,Scattered Clouds,100,2012-11-15 11:35:00
4:55 AM,30.2,23.0,75,30.33,10.0,East,11.5,-,N/A,,Clear,100,2012-11-15 11:55:00
5:15 AM,28.4,23.0,80,30.33,10.0,ESE,10.4,-,N/A,,Clear,110,2012-11-15 12:15:00
5:35 AM,28.4,23.0,80,30.34,10.0,ESE,11.5,-,N/A,,Clear,120,2012-11-15 12:35:00
5:55 AM,28.4,23.0,80,30.34,10.0,ESE,13.8,-,N/A,,Clear,120,2012-11-15 12:55:00
6:15 AM,26.6,23.0,86,30.34,10.0,SE,12.7,-,N/A,,Clear,130,2012-11-15 13:15:00
6:35 AM,26.6,23.0,86,30.34,10.0,SE,13.8,-,N/A,,Clear,130,2012-11-15 13:35:00
6:55 AM,26.6,23.0,86,30.34,10.0,ESE,15.0,-,N/A,,Clear,120,2012-11-15 13:55:00
7:15 AM,26.6,23.0,86,30.34,10.0,ESE,17.3,-,N/A,,Clear,120,2012-11-15 14:15:00
7:35 AM,26.6,23.0,86,30.34,10.0,ESE,16.1,-,N/A,,Clear,120,2012-11-15 14:35:00
7:55 AM,26.6,23.0,86,30.35,10.0,ESE,15.0,-,N/A,,Clear,120,2012-11-15 14:55:00
8:15 AM,26.6,23.0,86,30.35,10.0,ESE,18.4,-,N/A,,Clear,120,2012-11-15 15:15:00
8:35 AM,26.6,23.0,86,30.35,10.0,SE,17.3,-,N/A,,Clear,130,2012-11-15 15:35:00
8:55 AM,26.6,23.0,86,30.35,10.0,SE,16.1,-,N/A,,Clear,130,2012-11-15 15:55:00
9:15 AM,26.6,23.0,86,30.36,10.0,ESE,17.3,-,N/A,,Clear,120,2012-11-15 16:15:00
9:35 AM,26.6,23.0,86,30.36,10.0,ESE,16.1,-,N/A,,Scattered Clouds,120,2012-11-15 16:35:00
9:55 AM,26.6,23.0,86,30.35,10.0,ESE,15.0,-,N/A,,Clear,120,2012-11-15 16:55:00
10:15 AM,26.6,23.0,86,30.36,10.0,SE,16.1,-,N/A,,Clear,130,2012-11-15 17:15:00
10:35 AM,26.6,23.0,86,30.36,10.0,SE,13.8,-,N/A,,Clear,140,2012-11-15 17:35:00
10:55 AM,26.6,23.0,86,30.35,10.0,SE,15.0,-,N/A,,Clear,130,2012-11-15 17:55:00
11:15 AM,28.4,23.0,80,30.35,10.0,SE,15.0,-,N/A,,Clear,140,2012-11-15 18:15:00
11:35 AM,28.4,24.8,86,30.34,10.0,SE,17.3,-,N/A,,Clear,130,2012-11-15 18:35:00
11:55 AM,28.4,23.0,80,30.33,10.0,SE,16.1,-,N/A,,Clear,130,2012-11-15 18:55:00
12:15 PM,28.4,23.0,80,30.32,10.0,SE,16.1,-,N/A,,Clear,140,2012-11-15 19:15:00
12:35 PM,28.4,23.0,80,30.31,10.0,SE,16.1,-,N/A,,Clear,140,2012-11-15 19:35:00
12:55 PM,28.4,23.0,80,30.30,10.0,SE,17.3,-,N/A,,Clear,140,2012-11-15 19:55:00
1:15 PM,30.2,23.0,75,30.30,10.0,SE,15.0,-,N/A,,Clear,140,2012-11-15 20:15:00
1:35 PM,30.2,23.0,75,30.29,10.0,SE,15.0,19.6,N/A,,Clear,140,2012-11-15 20:35:00
1:55 PM,30.2,21.2,69,30.28,10.0,SE,18.4,-,N/A,,Clear,130,2012-11-15 20:55:00
2:15 PM,32.0,23.0,69,30.28,10.0,SE,19.6,24.2,N/A,,Clear,140,2012-11-15 21:15:00
2:35 PM,32.0,21.2,64,30.28,10.0,SE,15.0,-,N/A,,Clear,140,2012-11-15 21:35:00
2:55 PM,32.0,21.2,64,30.27,10.0,SE,15.0,-,N/A,,Clear,140,2012-11-15 21:55:00
3:15 PM,30.2,21.2,69,30.26,10.0,SE,15.0,-,N/A,,Clear,140,2012-11-15 22:15:00
3:35 PM,32.0,23.0,69,30.26,10.0,SE,18.4,-,N/A,,Clear,140,2012-11-15 22:35:00
3:55 PM,30.2,23.0,75,30.26,10.0,SE,19.6,-,N/A,,Clear,140,2012-11-15 22:55:00
4:15 PM,30.2,23.0,75,30.26,10.0,SE,18.4,-,N/A,,Clear,140,2012-11-15 23:15:00
4:35 PM,30.2,21.2,69,30.26,10.0,SE,18.4,-,N/A,,Clear,140,2012-11-15 23:35:00
4:55 PM,28.4,21.2,74,30.26,10.0,SE,16.1,-,N/A,,Clear,140,2012-11-15 23:55:00
5:15 PM,28.4,21.2,74,30.26,10.0,SE,17.3,-,N/A,,Clear,140,2012-11-16 00:15:00
5:35 PM,28.4,21.2,74,30.26,10.0,SE,12.7,-,N/A,,Clear,140,2012-11-16 00:35:00
5:55 PM,28.4,21.2,74,30.26,10.0,SE,11.5,-,N/A,,Clear,140,2012-11-16 00:55:00
6:15 PM,30.2,17.6,60,30.26,10.0,SSE,17.3,-,N/A,,Clear,160,2012-11-16 01:15:00
6:35 PM,30.2,19.4,64,30.26,10.0,SSE,20.7,-,N/A,,Clear,160,2012-11-16 01:35:00
6:55 PM,30.2,19.4,64,30.26,10.0,SSE,18.4,23.0,N/A,,Clear,160,2012-11-16 01:55:00
8:35 PM,28.4,21.2,74,30.25,10.0,SSE,11.5,-,N/A,,Clear,150,2012-11-16 03:35:00
8:55 PM,28.4,21.2,74,30.25,10.0,SSE,12.7,-,N/A,,Clear,150,2012-11-16 03:55:00
9:15 PM,28.4,21.2,74,30.25,10.0,SSE,15.0,18.4,N/A,,Clear,160,2012-11-16 04:15:00
9:35 PM,28.4,21.2,74,30.25,10.0,SSE,11.5,-,N/A,,Clear,160,2012-11-16 04:35:00
9:55 PM,28.4,21.2,74,30.25,10.0,SSE,11.5,-,N/A,,Clear,160,2012-11-16 04:55:00
10:15 PM,28.4,21.2,74,30.24,10.0,SSE,11.5,-,N/A,,Clear,150,2012-11-16 05:15:00
10:35 PM,28.4,19.4,69,30.24,10.0,SSE,12.7,-,N/A,,Clear,150,2012-11-16 05:35:00
10:55 PM,28.4,19.4,69,30.23,10.0,SSE,13.8,18.4,N/A,,Clear,150,2012-11-16 05:55:00
11:15 PM,26.6,21.2,80,30.23,10.0,SSE,12.7,-,N/A,,Clear,150,2012-11-16 06:15:00
11:35 PM,26.6,21.2,80,30.22,10.0,SE,13.8,-,N/A,,Clear,140,2012-11-16 06:35:00
11:55 PM,28.4,21.2,74,30.22,10.0,SSE,12.7,-,N/A,,Clear,150,2012-11-16 06:55:00